Wind_Speed
22 21 21 22 22 22 22 22 23 23 23 24 24 24 24 24 25 25 25 26 25 23 23 22 22 21 21 21 21 23 24 24 25 25 24 24 25 25 24 24 24 23 22 22 21 22 23 22 20 18 19 19 19 21 29 38 39 38 40 41 43 45 46
21 21 20 20 20 20 20 21 22 22 22 22 22 22 22 22 22 22 23 23 24 23 22 22 21 21 20 20 21 22 23 24 25 25 24 23 24 24 23 24 25 26 26 26 25 25 25 25 23 22 21 20 18 16 19 27 34 36 38 40 40 41 43
21 20 19 19 18 18 19 19 20 21 22 22 21 21 21 21 21 21 21 21 22 22 21 21 21 21 20 20 20 21 22 23 24 25 24 23 23 23 22 22 24 26 27 27 28 29 30 29 28 27 26 24 22 20 19 21 26 31 35 37 39 39 40
20 19 18 18 17 17 18 18 19 19 20 20 20 20 20 20 20 20 20 20 21 21 21 21 20 20 20 20 20 21 22 23 24 24 24 23 22 22 22 22 22 24 25 25 25 27 28 29 28 28 27 27 26 25 24 23 22 25 27 30 33 35 37
19 18 18 18 17 18 18 18 18 18 18 19 19 19 19 20 20 20 20 20 20 20 20 20 20 20 20 20 20 20 21 22 23 23 23 23 22 21 21 21 21 22 23 23 23 24 25 25 25 26 26 26 26 26 26 25 23 23 24 26 28 29 31
18 17 17 17 17 17 18 18 18 18 18 18 18 18 18 18 19 19 19 19 19 19 19 20 20 20 20 20 20 20 21 21 21 22 22 22 22 21 21 21 21 21 22 22 22 22 23 23 23 24 24 25 25 25 25 25 24 22 22 25 27 28 28
20 17 16 17 17 17 18 18 18 18 18 18 18 17 17 17 17 17 17 17 17 18 19 19 19 19 20 20 20 20 20 20 20 21 21 21 21 20 20 20 20 20 20 21 21 21 21 22 22 22 22 22 23 23 23 23 24 23 22 23 24 27 28
20 18 17 18 18 19 19 19 18 19 19 19 18 18 18 17 17 16 16 16 16 17 17 18 18 19 19 19 19 19 20 19 19 20 20 20 20 19 19 19 19 19 20 20 20 20 20 20 21 21 21 21 21 21 21 22 23 23 22 22 23 25 26
20 18 18 19 20 20 20 20 20 20 20 20 19 19 19 18 18 17 16 15 15 15 16 16 17 17 18 18 18 19 19 19 19 19 19 19 20 19 19 19 19 19 19 19 19 19 19 19 19 19 19 19 19 19 19 20 21 21 20 22 23 24 24
20 19 20 21 22 22 21 21 21 21 21 20 20 19 19 19 19 18 18 17 16 15 15 16 16 16 17 17 17 17 18 18 19 19 19 19 19 19 19 18 18 18 18 19 19 18 18 18 18 18 18 18 18 17 17 18 19 19 18 21 22 21 21
21 20 21 21 22 23 22 21 21 22 21 21 20 19 19 19 19 18 18 18 17 17 16 16 16 16 16 16 17 17 17 17 17 18 18 18 18 19 19 18 18 18 18 18 19 18 18 17 18 17 17 17 17 17 17 17 18 18 18 19 21 20 20
23 21 21 22 22 22 22 22 21 21 21 21 20 20 19 18 18 18 18 18 18 18 18 18 18 17 17 17 17 17 17 17 17 17 17 18 18 18 19 19 19 18 18 18 18 18 18 18 18 18 17 17 17 17 17 18 18 18 18 19 20 20 19
23 22 22 22 21 21 22 22 22 21 21 20 20 20 19 18 18 17 17 17 18 18 19 19 19 19 19 19 18 18 18 18 18 18 18 18 18 19 19 19 19 19 19 19 19 19 19 19 18 19 19 19 18 18 18 19 19 19 20 20 21 21 20
24 23 23 23 22 21 22 23 23 22 20 20 20 20 19 19 19 18 18 18 18 18 19 19 20 20 21 21 21 21 20 20 20 20 20 20 20 20 20 20 20 20 20 20 20 20 20 20 20 20 20 20 20 20 20 20 21 21 22 22 22 23 22
26 24 23 24 24 24 24 23 23 22 21 21 21 21 21 20 20 20 20 20 20 19 19 19 20 20 20 21 21 22 22 23 23 23 23 23 23 22 22 22 22 22 22 22 22 22 22 22 22 22 22 22 22 22 22 22 22 23 24 24 25 25 25
30 28 27 27 27 27 27 26 24 22 22 22 22 22 23 23 22 22 22 23 23 22 22 21 20 20 20 20 20 21 22 23 24 24 25 25 25 25 24 24 23 23 24 23 24 23 23 24 24 24 24 25 25 24 24 24 24 25 25 26 26 27 27
33 31 30 30 29 30 30 30 28 25 24 24 24 24 24 25 25 25 25 26 26 25 24 23 22 22 22 21 21 22 22 22 22 22 23 24 24 25 26 26 26 26 26 25 25 25 25 25 26 26 26 26 27 27 28 27 27 27 27 27 28 28 28
33 32 31 31 30 29 29 29 29 29 28 27 27 27 26 27 28 29 28 29 28 27 27 26 25 25 25 25 24 24 24 23 23 23 23 24 23 24 25 26 26 26 27 27 26 27 27 27 28 28 28 28 28 29 29 30 30 29 29 28 29 30 31
34 33 32 32 31 30 31 32 32 31 30 29 29 29 29 30 31 32 31 31 30 30 30 29 28 28 28 28 27 27 27 27 26 26 26 26 26 26 26 27 27 27 27 28 28 28 28 28 28 29 29 29 30 30 30 31 31 31 30 30 30 31 33
37 36 35 35 35 34 35 35 33 30 29 30 31 32 33 35 35 33 31 30 30 32 32 33 33 31 29 29 30 30 31 31 30 30 30 30 30 30 30 30 30 30 30 30 30 30 29 29 29 30 30 31 31 31 31 31 31 31 32 31 32 32 33
40 40 39 40 41 40 39 37 33 32 33 33 34 34 34 34 35 34 32 30 29 30 31 31 32 32 30 29 30 32 33 34 34 34 34 34 34 34 34 34 34 34 34 34 34 34 33 33 32 33 33 33 33 33 33 33 33 34 34 33 33 34 34
43 43 43 44 45 45 45 44 42 41 41 40 39 39 38 38 38 36 34 31 30 30 30 29 29 28 28 29 31 32 34 36 37 37 37 36 36 36 36 36 37 37 36 36 37 37 37 37 37 38 38 38 37 37 37 37 36 37 37 36 35 35 35
47 47 47 47 48 48 48 47 46 44 44 44 44 45 45 45 44 42 40 39 39 40 40 37 34 32 31 32 34 35 36 37 38 39 39 39 38 38 38 39 39 40 40 40 40 39 39 39 39 39 39 39 38 37 36 36 36 37 37 37 37 37 37
51 51 50 50 51 51 51 50 48 46 44 45 45 47 48 47 46 47 48 48 49 49 48 44 42 41 39 38 39 40 41 40 40 41 42 42 41 40 41 42 42 43 43 43 43 43 44 43 42 40 40 39 39 38 38 38 38 39 39 39 39 40 40
53 52 52 52 53 53 53 53 52 51 49 47 46 47 48 49 48 48 49 51 51 52 50 48 47 46 44 43 43 44 45 45 44 45 45 45 44 44 44 44 45 45 45 46 46 47 47 48 47 47 46 46 45 45 45 45 44 44 44 44 44 45 45
52 52 51 52 52 53 54 54 54 54 53 52 50 49 49 50 51 51 51 51 52 53 52 51 51 50 48 47 46 46 47 48 48 48 48 48 49 49 49 49 48 49 49 50 50 50 51 51 51 51 50 50 49 50 50 50 49 49 49 49 49 49 49
52 51 51 51 52 52 53 54 53 53 53 53 53 52 51 51 52 52 52 51 52 52 52 52 51 50 49 48 47 48 49 50 50 50 50 51 52 53 53 53 52 52 53 53 54 54 54 55 55 54 54 53 53 53 53 53 53 53 53 53 53 52 52
53 52 51 52 53 53 54 54 53 52 52 52 52 53 52 52 52 52 53 53 53 53 52 52 52 52 50 49 50 51 52 52 52 52 52 52 52 53 54 55 55 56 57 57 57 57 58 58 58 58 57 57 56 56 55 55 54 54 54 54 54 54 53
54 54 54 54 54 54 54 55 54 53 53 53 53 54 55 56 56 56 56 57 57 56 56 57 57 56 55 54 54 56 56 55 55 55 55 55 55 55 55 55 56 57 59 59 59 60 60 60 61 61 60 59 59 58 57 56 56 55 55 55 55 55 55
54 55 56 56 57 57 57 57 57 57 57 57 57 58 59 60 61 61 61 61 61 60 59 59 58 57 57 56 57 58 57 56 56 56 56 55 55 55 55 56 56 57 58 59 60 60 61 61 61 61 61 60 60 58 58 57 57 57 57 57 57 57 56
53 54 54 56 57 58 58 58 57 57 57 58 58 58 59 60 61 62 62 61 60 59 59 59 58 57 57 56 56 56 56 55 55 54 54 54 54 55 55 55 56 56 57 58 58 58 59 59 60 60 60 60 59 59 59 59 58 58 58 58 58 58 57
52 53 54 55 55 56 56 56 56 56 55 56 56 56 57 58 59 60 60 58 58 57 58 58 58 57 56 55 54 54 54 53 53 53 53 53 53 54 54 55 55 55 56 56 56 57 57 58 58 59 59 59 60 60 60 60 60 59 58 58 58 58 57
52 53 54 54 55 56 57 57 56 56 56 55 56 56 56 56 56 57 57 56 56 56 57 57 57 56 55 54 53 53 52 52 53 52 52 53 53 53 53 54 54 54 54 55 55 56 57 57 57 58 58 59 60 60 61 61 60 60 59 58 57 57 57
51 51 52 53 53 54 55 56 56 57 57 56 57 57 57 56 55 55 54 54 54 55 55 55 55 55 54 54 53 53 52 52 52 52 52 52 52 53 53 54 53 53 54 55 55 55 56 57 57 57 58 58 59 59 60 60 60 60 59 58 58 57 57
49 49 50 51 51 51 52 53 53 54 55 55 56 57 56 55 54 53 53 52 53 53 53 53 53 53 53 54 53 53 52 52 52 52 52 52 52 52 53 54 53 53 54 54 55 55 56 56 57 57 57 58 58 59 59 59 60 60 59 59 59 58 58
48 48 48 49 49 49 49 49 49 50 51 52 54 55 54 53 52 51 51 52 52 52 52 51 51 52 52 53 53 52 52 52 52 51 51 51 51 51 52 52 52 52 53 54 54 55 55 55 56 56 56 57 58 58 59 59 60 60 60 61 61 61 61
46 46 47 48 49 49 49 48 47 47 48 50 51 51 50 49 50 50 51 51 50 50 50 50 50 50 50 50 51 50 50 50 50 50 49 49 49 49 50 50 51 51 52 52 53 53 53 54 54 55 55 56 57 58 59 59 60 61 61 62 63 63 63
Wind_Direction
286 282 279 277 275 273 272 273 273 274 275 274 274 274 273 272 270 268 267 267 267 266 265 264 264 263 262 262 263 264 265 265 265 265 265 265 265 263 261 260 257 259 262 265 266 268 270 270 271 275 278 281 284 275 255 242 238 241 242 242 243 243 242
282 278 276 275 275 274 274 274 274 274 274 274 273 273 273 272 271 270 269 268 268 267 265 263 263 263 263 262 262 263 265 266 266 267 266 264 265 264 262 259 259 259 259 261 262 261 261 263 268 273 278 282 283 286 274 253 245 246 247 245 245 244 243
277 274 272 273 273 274 275 276 275 275 275 275 274 273 273 272 272 272 271 270 269 268 267 265 264 264 264 263 263 263 264 266 267 268 268 266 265 264 263 260 260 260 260 260 260 260 259 262 269 272 272 272 272 275 279 268 257 254 253 253 251 247 244
271 269 269 270 271 272 274 275 276 276 276 276 276 275 273 273 272 271 271 271 270 269 269 268 267 267 267 267 265 264 264 265 266 267 268 268 266 265 264 261 260 261 262 262 261 261 262 263 265 267 266 266 267 269 270 269 266 261 258 259 258 252 248
267 267 268 269 270 271 273 274 275 275 277 277 277 277 275 274 274 272 271 271 271 270 269 268 269 269 271 270 269 268 267 267 266 267 268 268 267 265 264 263 262 262 262 263 262 261 263 264 263 263 264 263 263 264 266 266 266 265 261 259 258 259 257
267 268 270 272 272 272 273 274 274 274 274 275 276 276 275 274 274 274 273 273 272 273 271 270 269 269 270 271 272 272 271 270 269 269 269 269 269 267 266 265 263 263 263 264 264 262 262 263 262 262 262 262 261 260 262 263 263 263 261 257 254 253 254
268 268 271 273 273 273 274 274 274 273 272 273 274 275 275 273 273 273 274 274 274 274 273 272 271 270 270 271 271 272 272 272 271 270 270 270 270 269 267 266 264 263 264 264 263 262 261 261 262 261 260 260 260 259 259 260 261 260 259 258 255 251 248
266 268 271 272 271 271 272 272 274 274 273 273 273 274 274 273 273 272 272 273 273 273 272 272 272 272 272 273 273 273 273 273 272 271 270 270 270 270 268 266 265 263 262 262 261 259 258 258 259 259 259 258 258 258 256 255 256 258 258 258 258 256 256
265 267 270 271 270 270 270 271 273 274 274 274 273 274 273 273 272 271 270 269 269 269 269 269 269 271 272 274 276 277 277 276 275 274 272 271 270 270 270 268 266 265 264 262 261 259 256 255 255 255 256 256 255 255 254 252 253 254 254 254 255 257 260
266 268 269 271 272 272 271 272 272 273 274 274 274 274 274 272 271 270 268 267 265 265 266 265 265 266 268 271 273 276 278 279 279 278 276 273 271 269 269 269 267 266 265 264 263 262 259 256 255 254 253 253 254 253 252 251 251 251 250 252 254 254 255
265 268 270 273 273 273 272 272 273 274 274 274 274 274 274 272 271 269 267 265 263 262 261 261 261 261 261 263 266 268 271 274 276 277 277 275 273 271 268 267 265 264 263 263 262 262 261 258 256 255 253 252 252 252 251 249 249 248 247 251 254 252 250
264 267 273 276 275 273 272 273 273 274 275 274 273 273 272 271 269 268 267 267 266 264 262 261 259 258 257 257 258 261 263 266 268 271 273 274 273 272 270 267 265 263 260 259 259 259 259 258 257 256 256 255 253 252 253 253 252 251 248 250 253 254 252
262 265 271 274 273 271 272 275 274 274 274 273 272 271 270 268 267 267 268 268 269 269 269 268 265 262 259 257 255 256 258 260 262 264 266 268 269 269 269 268 266 265 263 261 259 259 259 259 258 257 257 258 258 257 257 257 258 258 257 255 255 256 255
259 264 269 272 272 269 269 273 273 272 271 268 267 266 266 266 266 266 268 270 270 271 272 272 271 268 265 262 260 257 256 256 257 259 260 261 263 264 266 266 266 265 265 264 262 261 261 261 261 261 260 259 260 261 261 262 263 264 265 264 263 263 261
261 264 269 273 273 270 268 268 270 271 270 266 263 261 262 264 265 266 267 269 270 271 271 271 271 270 269 267 265 263 260 259 257 257 257 257 258 258 261 264 266 267 266 266 266 265 264 263 262 263 263 263 262 261 262 262 264 265 267 268 269 270 271
267 266 268 271 272 271 267 263 266 269 268 267 265 262 262 262 262 263 265 268 270 271 271 269 267 268 268 267 267 266 264 264 263 262 262 262 262 262 262 261 263 265 266 266 267 267 266 266 265 264 265 265 266 266 265 264 263 264 267 269 269 270 272
269 267 268 269 269 271 267 261 261 264 263 263 264 263 262 262 262 262 263 266 268 270 270 269 266 265 266 265 264 264 264 265 266 268 269 269 269 270 269 267 266 265 266 267 268 268 268 267 267 266 265 266 267 269 269 269 268 267 267 269 270 269 269
267 267 267 265 264 268 266 261 262 264 262 261 263 264 263 264 265 264 263 264 265 266 267 266 264 264 265 264 262 262 262 263 265 268 269 270 270 270 270 271 271 269 269 269 269 270 270 271 271 270 270 269 269 269 270 272 273 273 272 272 274 274 274
266 268 267 265 263 264 265 264 263 264 264 264 266 266 264 264 265 263 262 262 261 262 262 260 260 261 263 263 263 263 263 263 265 267 268 268 270 270 270 270 270 270 269 268 268 268 268 268 269 270 271 271 271 271 271 271 272 273 274 275 275 277 278
267 268 267 266 267 267 269 267 261 261 268 270 269 267 263 263 266 265 263 261 260 260 259 259 258 258 259 260 262 263 264 265 266 267 269 270 271 272 272 271 270 269 269 268 268 267 266 265 267 268 269 269 270 270 270 271 271 272 272 273 273 274 274
269 269 269 268 269 269 270 269 264 265 273 274 272 269 265 265 268 269 269 267 265 260 259 260 260 258 256 257 260 261 263 265 266 267 268 269 271 272 272 273 272 271 271 270 269 268 267 266 267 269 270 270 269 269 270 271 272 272 272 273 273 273 273
270 270 270 269 270 269 268 268 268 269 273 274 272 269 268 269 270 269 265 264 265 264 267 271 270 265 261 261 262 263 264 265 266 265 265 265 267 269 270 271 271 271 272 272 273 273 271 270 269 269 269 270 270 269 270 271 273 273 274 274 274 275 274
269 270 270 270 270 270 269 269 268 268 270 271 272 270 269 270 270 267 263 263 265 268 274 278 277 275 273 270 268 267 266 266 266 267 266 265 265 267 268 268 269 269 270 272 275 276 275 274 272 270 269 269 269 269 269 271 273 274 275 274 274 275 276
267 268 269 270 271 271 271 271 270 268 267 268 268 269 269 268 268 266 266 266 268 270 273 274 274 276 277 274 272 270 269 267 267 269 269 268 267 267 268 268 268 268 269 270 272 274 274 275 274 273 273 272 272 272 272 273 274 275 275 274 275 276 277
265 266 267 269 270 271 272 272 272 271 269 267 266 266 267 266 265 264 264 265 266 268 270 271 271 273 273 272 270 269 268 268 268 269 270 270 269 268 268 268 268 268 268 269 270 272 273 275 276 276 276 276 276 276 276 276 276 277 277 276 276 277 277
262 263 264 266 267 269 269 269 270 270 269 268 267 266 265 266 266 265 265 266 267 268 269 270 271 272 272 272 272 270 269 269 269 269 270 270 270 270 270 270 269 270 270 270 270 271 273 275 276 276 276 276 276 276 277 278 278 278 278 278 278 278 278
259 260 262 264 265 265 266 266 267 268 268 269 269 268 267 268 268 269 269 269 270 270 271 272 273 274 274 274 275 274 272 271 271 271 271 270 269 270 271 272 272 272 272 272 272 272 273 274 275 276 277 277 277 277 278 279 280 280 280 280 279 279 279
257 256 258 260 261 261 262 262 263 264 266 268 268 269 270 270 270 271 272 272 273 273 273 274 274 275 275 275 276 276 275 274 274 274 274 273 272 271 271 272 272 272 272 272 272 272 273 273 275 276 276 277 277 278 279 279 279 279 279 279 279 279 279
258 257 256 257 259 260 260 259 260 261 263 265 267 268 269 270 272 273 273 274 274 275 275 276 276 276 276 276 276 276 277 276 276 275 275 275 275 274 274 273 273 273 273 273 273 273 273 274 275 276 276 277 278 278 278 278 277 277 277 277 277 277 277
260 260 260 260 261 262 263 263 263 263 264 265 266 267 268 270 271 272 273 274 275 276 276 276 276 276 276 276 276 276 276 276 275 275 274 274 274 274 274 273 273 273 272 272 273 273 274 274 275 275 276 277 277 277 277 276 276 276 276 276 276 276 275
262 262 262 262 263 264 265 266 266 267 267 266 267 267 268 269 270 271 272 273 274 274 275 275 274 274 274 275 275 275 275 274 274 273 273 274 273 273 272 272 272 272 272 272 272 273 273 274 274 275 275 275 276 276 276 275 275 275 275 275 276 275 275
262 262 262 262 263 264 265 266 267 267 268 268 268 268 268 269 270 270 271 271 272 272 272 272 273 273 273 274 274 274 274 274 273 273 273 273 272 272 271 271 271 271 271 272 272 272 272 273 273 274 275 275 275 275 275 275 276 275 275 275 274 274 274
263 263 263 262 262 263 264 264 265 266 267 268 268 268 268 269 269 270 270 270 270 270 270 270 271 272 273 273 272 272 273 273 273 273 273 273 272 272 272 272 272 272 272 272 273 273 273 273 274 274 275 275 275 276 276 276 276 276 275 274 273 272 272
265 265 265 265 264 264 264 265 265 266 266 267 268 267 267 267 268 268 268 268 268 268 268 269 270 270 271 271 271 272 272 272 273 273 273 273 274 274 274 274 274 274 274 274 274 274 274 274 274 275 275 275 275 275 276 276 276 276 275 274 273 272 271
266 266 267 267 267 267 266 266 266 266 267 267 268 268 267 267 267 268 268 267 267 267 267 267 268 268 269 269 270 271 271 272 273 273 274 274 274 274 275 275 275 275 275 275 275 275 275 275 275 275 275 275 275 275 275 275 275 275 274 274 273 272 271
267 268 269 269 269 269 268 268 268 268 268 268 268 268 268 268 268 269 268 267 267 268 268 268 267 267 268 268 269 270 271 272 272 273 273 274 274 274 274 274 274 274 274 274 274 274 275 275 275 275 274 274 274 274 274 274 274 273 273 273 272 272 271
268 268 268 268 268 269 269 269 269 269 269 268 269 270 270 270 269 268 268 268 268 269 269 269 268 268 269 269 270 271 271 272 273 273 274 274 275 275 275 275 275 274 274 274 275 275 275 275 275 275 274 274 274 274 273 273 273 272 272 271 271 271 270
Height
5752 5752 5752 5752 5752 5753 5753 5753 5753 5753 5752 5752 5752 5752 5752 5753 5753 5754 5754 5754 5755 5755 5755 5756 5757 5757 5758 5758 5758 5758 5758 5759 5760 5760 5761 5761 5761 5762 5763 5764 5765 5766 5766 5766 5766 5767 5767 5768 5768 5768 5769 5769 5769 5769 5770 5772 5774 5776 5777 5779 5781 5783 5784
5750 5750 5750 5750 5750 5750 5750 5750 5750 5750 5750 5750 5750 5750 5750 5750 5751 5751 5752 5752 5752 5752 5753 5753 5754 5754 5755 5755 5755 5755 5755 5756 5756 5757 5758 5758 5759 5759 5760 5761 5762 5763 5764 5764 5764 5765 5765 5765 5765 5766 5767 5768 5768 5767 5768 5770 5772 5773 5774 5776 5777 5778 5780
5748 5748 5748 5748 5748 5748 5748 5748 5748 5748 5748 5748 5748 5748 5748 5748 5748 5748 5749 5749 5749 5750 5750 5750 5751 5751 5752 5752 5753 5753 5753 5753 5753 5754 5754 5755 5756 5756 5757 5758 5759 5760 5760 5761 5762 5762 5762 5762 5763 5763 5764 5765 5766 5767 5768 5769 5770 5771 5771 5772 5773 5774 5776
5746 5745 5745 5746 5746 5746 5746 5746 5746 5746 5746 5746 5746 5745 5745 5745 5746 5746 5746 5747 5747 5747 5747 5748 5748 5749 5749 5750 5750 5751 5751 5751 5751 5751 5751 5752 5753 5754 5754 5755 5756 5757 5757 5758 5759 5759 5759 5760 5760 5761 5762 5763 5764 5765 5766 5767 5767 5767 5767 5768 5769 5770 5771
5743 5743 5743 5744 5744 5744 5744 5744 5744 5744 5744 5744 5744 5744 5743 5743 5743 5744 5744 5744 5745 5745 5745 5745 5746 5746 5747 5747 5748 5748 5748 5749 5749 5749 5749 5749 5750 5751 5751 5752 5753 5754 5754 5755 5755 5756 5756 5757 5757 5758 5759 5760 5761 5762 5763 5764 5764 5764 5764 5765 5766 5767 5768
5741 5741 5741 5742 5742 5742 5742 5742 5742 5742 5742 5742 5742 5742 5742 5741 5741 5742 5742 5742 5743 5743 5743 5743 5743 5744 5744 5745 5745 5746 5746 5747 5747 5747 5747 5747 5747 5748 5749 5749 5750 5751 5751 5752 5752 5753 5753 5753 5754 5755 5756 5757 5757 5758 5759 5760 5761 5761 5762 5762 5763 5764 5765
5738 5739 5739 5740 5740 5740 5740 5740 5740 5740 5740 5740 5740 5740 5740 5740 5740 5740 5740 5740 5741 5741 5741 5741 5742 5742 5742 5743 5743 5744 5744 5745 5745 5745 5745 5745 5745 5746 5746 5747 5747 5748 5748 5749 5749 5750 5750 5751 5751 5752 5753 5753 5754 5755 5756 5756 5757 5758 5759 5759 5760 5761 5762
5736 5736 5737 5737 5738 5738 5738 5738 5738 5738 5738 5738 5739 5739 5739 5738 5738 5738 5738 5739 5739 5739 5739 5740 5740 5740 5740 5741 5741 5741 5742 5743 5743 5743 5743 5743 5744 5744 5744 5744 5745 5745 5746 5746 5746 5747 5747 5748 5748 5749 5749 5750 5751 5751 5753 5754 5754 5755 5756 5757 5757 5757 5758
5733 5733 5734 5735 5735 5735 5736 5736 5736 5736 5736 5736 5737 5737 5737 5737 5737 5737 5737 5737 5737 5737 5737 5737 5738 5738 5738 5738 5739 5739 5740 5740 5741 5741 5741 5742 5742 5742 5742 5743 5743 5743 5743 5744 5744 5744 5745 5745 5745 5746 5746 5747 5748 5749 5750 5750 5751 5752 5753 5753 5754 5755 5756
5730 5731 5732 5732 5733 5733 5733 5733 5734 5734 5734 5734 5735 5735 5735 5735 5735 5735 5735 5735 5735 5735 5735 5735 5736 5736 5736 5736 5736 5737 5737 5738 5738 5739 5739 5740 5740 5740 5740 5741 5741 5741 5741 5742 5742 5742 5742 5743 5743 5743 5744 5744 5745 5746 5747 5747 5748 5749 5750 5750 5751 5753 5753
5728 5728 5729 5730 5730 5731 5731 5731 5731 5731 5732 5732 5733 5733 5733 5734 5734 5734 5734 5733 5733 5733 5733 5733 5733 5734 5734 5734 5734 5734 5735 5735 5736 5736 5737 5737 5738 5738 5738 5738 5739 5739 5740 5740 5740 5740 5740 5741 5741 5741 5742 5742 5743 5743 5744 5744 5745 5746 5747 5747 5748 5749 5750
5725 5725 5726 5727 5728 5729 5729 5729 5729 5730 5730 5730 5730 5731 5731 5732 5732 5732 5732 5732 5731 5731 5731 5731 5731 5732 5732 5732 5732 5732 5732 5733 5733 5734 5734 5735 5735 5736 5736 5737 5737 5737 5738 5738 5738 5739 5739 5739 5739 5740 5740 5740 5741 5741 5741 5742 5742 5743 5744 5745 5745 5746 5747
5722 5723 5724 5724 5725 5726 5727 5727 5728 5728 5728 5728 5728 5728 5729 5729 5730 5730 5730 5730 5730 5730 5730 5730 5730 5730 5730 5730 5730 5730 5730 5730 5730 5731 5731 5732 5733 5733 5734 5735 5735 5735 5736 5736 5737 5737 5737 5738 5738 5738 5738 5739 5739 5739 5740 5740 5740 5741 5742 5742 5743 5743 5744
5720 5721 5721 5722 5722 5723 5724 5725 5725 5725 5726 5726 5726 5726 5726 5727 5727 5727 5728 5728 5728 5728 5728 5728 5728 5728 5728 5728 5728 5728 5728 5728 5728 5728 5729 5729 5729 5730 5731 5731 5732 5733 5734 5734 5735 5735 5735 5736 5736 5736 5737 5737 5737 5738 5738 5738 5739 5739 5739 5740 5740 5741 5742
5717 5718 5719 5719 5720 5721 5721 5722 5722 5723 5723 5723 5723 5724 5724 5724 5724 5725 5725 5725 5726 5726 5726 5726 5726 5726 5726 5726 5726 5725 5725 5725 5725 5725 5726 5726 5726 5727 5728 5728 5729 5730 5731 5731 5732 5732 5733 5733 5734 5734 5734 5735 5735 5735 5736 5736 5736 5737 5737 5737 5738 5738 5738
5714 5715 5715 5715 5716 5717 5718 5718 5719 5720 5720 5720 5720 5721 5722 5722 5722 5722 5722 5722 5723 5723 5723 5724 5724 5724 5724 5724 5723 5723 5723 5723 5723 5723 5723 5724 5724 5725 5725 5726 5726 5727 5727 5728 5729 5729 5730 5730 5730 5731 5731 5732 5732 5732 5733 5733 5734 5734 5734 5734 5734 5735 5735
5710 5711 5712 5712 5712 5713 5714 5714 5715 5716 5716 5716 5717 5718 5719 5719 5720 5719 5719 5719 5719 5720 5720 5721 5721 5721 5721 5721 5721 5721 5720 5721 5721 5721 5721 5722 5722 5722 5723 5723 5723 5724 5724 5725 5725 5726 5726 5727 5727 5727 5728 5728 5729 5729 5729 5730 5730 5731 5731 5731 5731 5731 5732
5706 5707 5707 5708 5708 5709 5709 5709 5710 5711 5712 5712 5713 5714 5715 5716 5716 5716 5716 5716 5716 5716 5717 5718 5718 5718 5718 5718 5718 5718 5718 5718 5718 5718 5719 5719 5719 5720 5720 5720 5720 5721 5721 5721 5722 5722 5722 5723 5723 5724 5724 5725 5725 5725 5726 5726 5726 5727 5727 5728 5728 5727 5728
5702 5703 5703 5703 5704 5705 5705 5705 5705 5706 5708 5709 5710 5710 5711 5711 5712 5712 5712 5712 5712 5712 5713 5714 5714 5714 5714 5714 5714 5714 5714 5715 5715 5715 5715 5716 5716 5717 5717 5717 5718 5718 5718 5718 5718 5719 5719 5719 5719 5720 5720 5721 5721 5721 5722 5722 5722 5722 5723 5723 5724 5724 5723
5698 5698 5699 5699 5699 5700 5700 5700 5700 5702 5704 5705 5705 5705 5705 5705 5706 5707 5708 5708 5708 5709 5709 5710 5710 5710 5710 5710 5710 5711 5711 5711 5711 5711 5711 5712 5712 5713 5713 5714 5714 5715 5715 5715 5715 5715 5715 5715 5716 5716 5716 5716 5717 5717 5718 5718 5718 5718 5718 5719 5719 5719 5719
5693 5693 5694 5694 5695 5695 5696 5696 5696 5698 5699 5700 5701 5701 5701 5701 5701 5703 5703 5704 5704 5704 5704 5705 5706 5705 5705 5706 5706 5707 5707 5707 5708 5708 5708 5708 5708 5709 5709 5709 5709 5710 5710 5710 5710 5711 5711 5711 5712 5712 5712 5712 5712 5713 5713 5713 5713 5714 5714 5715 5715 5715 5715
5688 5688 5689 5689 5690 5690 5691 5691 5692 5694 5694 5695 5697 5697 5697 5697 5698 5699 5699 5699 5700 5698 5698 5699 5699 5699 5700 5701 5702 5703 5703 5703 5704 5704 5704 5704 5704 5704 5705 5705 5705 5705 5705 5705 5705 5706 5706 5706 5707 5707 5707 5707 5707 5708 5708 5708 5708 5708 5709 5709 5709 5710 5710
5682 5683 5683 5683 5684 5684 5685 5685 5687 5688 5689 5690 5691 5691 5691 5692 5693 5694 5695 5695 5694 5693 5693 5694 5694 5694 5696 5697 5697 5698 5698 5699 5700 5700 5700 5700 5700 5700 5700 5700 5701 5701 5701 5700 5700 5700 5700 5701 5701 5701 5701 5702 5702 5702 5703 5703 5703 5703 5703 5703 5704 5704 5704
5676 5676 5677 5677 5677 5677 5678 5679 5680 5681 5683 5684 5685 5685 5685 5686 5687 5688 5689 5689 5689 5688 5688 5689 5690 5690 5691 5692 5692 5692 5693 5694 5695 5695 5695 5695 5695 5695 5695 5695 5695 5696 5696 5696 5695 5695 5695 5695 5695 5696 5696 5696 5697 5697 5697 5697 5698 5698 5698 5698 5698 5698 5698
5671 5671 5671 5671 5671 5671 5671 5671 5672 5673 5675 5677 5678 5679 5679 5679 5681 5682 5682 5683 5683 5682 5683 5684 5684 5686 5686 5686 5687 5687 5687 5688 5689 5689 5689 5689 5689 5689 5690 5690 5690 5690 5691 5691 5690 5690 5690 5690 5690 5690 5690 5691 5691 5691 5691 5691 5692 5692 5692 5692 5692 5692 5692
5665 5665 5666 5666 5666 5666 5665 5665 5665 5666 5667 5668 5670 5671 5672 5672 5673 5675 5675 5676 5676 5676 5677 5678 5678 5679 5680 5680 5680 5680 5680 5681 5682 5683 5683 5683 5682 5682 5683 5683 5684 5684 5684 5684 5684 5684 5684 5684 5683 5683 5684 5684 5684 5684 5684 5684 5684 5684 5685 5685 5686 5686 5685
5659 5659 5660 5660 5660 5660 5660 5660 5660 5660 5660 5661 5661 5663 5664 5665 5665 5666 5667 5668 5669 5669 5671 5672 5672 5672 5673 5673 5672 5672 5673 5675 5675 5676 5676 5676 5676 5675 5676 5676 5677 5677 5677 5677 5677 5677 5677 5677 5676 5677 5677 5677 5677 5677 5677 5677 5677 5676 5676 5676 5677 5678 5678
5652 5653 5654 5654 5655 5655 5655 5655 5655 5655 5655 5655 5655 5655 5656 5657 5658 5659 5660 5661 5661 5662 5664 5665 5665 5665 5666 5666 5665 5665 5666 5668 5669 5668 5668 5668 5668 5669 5669 5669 5669 5669 5669 5669 5669 5669 5669 5669 5669 5669 5669 5669 5669 5670 5670 5670 5669 5669 5668 5668 5669 5669 5669
5646 5646 5647 5648 5648 5648 5649 5649 5650 5650 5650 5650 5650 5650 5650 5650 5651 5652 5653 5654 5655 5657 5658 5657 5658 5658 5659 5659 5658 5658 5659 5661 5661 5660 5660 5660 5661 5661 5662 5662 5662 5662 5661 5661 5661 5661 5661 5661 5661 5660 5661 5661 5661 5661 5662 5661 5660 5660 5661 5661 5661 5661 5661
5638 5639 5640 5641 5641 5641 5642 5643 5643 5644 5644 5645 5645 5644 5644 5644 5644 5645 5647 5648 5649 5650 5650 5649 5650 5650 5650 5651 5651 5650 5651 5652 5653 5653 5653 5653 5654 5654 5654 5654 5654 5654 5653 5653 5654 5653 5653 5653 5652 5652 5652 5652 5652 5652 5652 5652 5652 5652 5652 5652 5652 5652 5652
5631 5632 5633 5633 5633 5634 5634 5635 5635 5636 5637 5637 5637 5637 5637 5637 5637 5639 5641 5643 5643 5643 5642 5642 5642 5642 5642 5643 5643 5642 5643 5644 5645 5645 5645 5646 5646 5647 5646 5646 5646 5645 5645 5645 5646 5646 5645 5644 5643 5643 5643 5643 5643 5643 5643 5642 5643 5644 5644 5643 5643 5643 5643
5624 5624 5625 5625 5626 5626 5626 5627 5628 5628 5629 5629 5629 5629 5629 5630 5631 5633 5635 5636 5636 5636 5635 5634 5635 5635 5635 5636 5635 5635 5635 5636 5637 5637 5638 5638 5638 5638 5638 5637 5638 5638 5637 5638 5638 5637 5636 5636 5635 5635 5634 5634 5634 5634 5633 5633 5634 5635 5635 5635 5634 5634 5633
5616 5617 5617 5618 5618 5618 5619 5619 5620 5621 5621 5622 5621 5621 5622 5624 5626 5626 5628 5628 5628 5628 5628 5628 5628 5628 5628 5628 5628 5628 5628 5629 5629 5630 5630 5630 5630 5630 5629 5629 5630 5630 5629 5630 5629 5628 5628 5627 5627 5626 5626 5626 5625 5624 5624 5624 5624 5624 5625 5626 5625 5625 5624
5609 5609 5609 5609 5610 5611 5611 5612 5613 5613 5614 5614 5613 5613 5615 5618 5619 5619 5620 5621 5620 5620 5621 5621 5621 5621 5621 5620 5621 5621 5621 5622 5622 5622 5622 5622 5622 5622 5621 5621 5622 5623 5622 5621 5621 5620 5620 5619 5619 5619 5618 5617 5616 5615 5615 5615 5615 5615 5615 5615 5615 5615 5615
5602 5602 5602 5602 5602 5603 5604 5605 5605 5606 5607 5606 5605 5605 5608 5611 5612 5612 5613 5613 5613 5613 5614 5614 5614 5614 5614 5613 5614 5615 5615 5614 5615 5615 5615 5615 5615 5615 5614 5613 5615 5615 5614 5613 5613 5612 5612 5611 5611 5611 5610 5608 5608 5607 5606 5606 5606 5605 5605 5605 5605 5605 5605
5595 5596 5596 5595 5595 5596 5596 5597 5598 5599 5599 5599 5597 5597 5601 5604 5605 5605 5605 5604 5605 5606 5606 5607 5607 5607 5607 5607 5607 5608 5608 5607 5608 5608 5608 5608 5608 5607 5607 5606 5607 5607 5606 5605 5605 5604 5604 5603 5603 5602 5601 5600 5599 5598 5598 5597 5597 5596 5596 5595 5595 5595 5594
5589 5589 5589 5588 5588 5589 5589 5590 5591 5592 5592 5591 5590 5591 5595 5597 5597 5597 5597 5597 5598 5599 5599 5599 5600 5600 5601 5601 5601 5601 5601 5601 5601 5601 5601 5601 5601 5600 5599 5599 5599 5599 5598 5597 5597 5596 5596 5595 5594 5593 5592 5591 5590 5589 5589 5588 5587 5586 5586 5585 5584 5584 5584